UAL1006 KSAN-KLAX

Flight info

Callsign UAL1006
Flight time 0h 24m
Altitude 10000
Route CWARD2 SLI
Aircraft A320/M-SDE3FGHIRWY/LB1

Departure

Time 2026-05-04 03:13
Airport San Diego International Airport (KSAN)

Arrival

Time 2026-05-04 03:37
Airport Los Angeles International Airport (KLAX)
Time Latitude Longitude Altitude Speed Heading
2026-05-04 02:41 32.73374 -117.20203 25 ft 0 kts 141°
2026-05-04 02:57 32.73378 -117.20207 22 ft 2 kts 141°
2026-05-04 02:57 32.73391 -117.20219 25 ft 2 kts 135°
2026-05-04 02:57 32.73405 -117.20230 24 ft 2 kts 189°
2026-05-04 02:57 32.73422 -117.20227 22 ft 2 kts 188°
2026-05-04 02:58 32.73434 -117.20225 22 ft 2 kts 182°
2026-05-04 02:58 32.73451 -117.20223 22 ft 2 kts 162°
2026-05-04 02:58 32.73464 -117.20235 22 ft 2 kts 94°
2026-05-04 02:58 32.73464 -117.20238 23 ft 0 kts 95°
2026-05-04 03:04 32.73465 -117.20226 23 ft 6 kts 84°
2026-05-04 03:05 32.73493 -117.20163 25 ft 10 kts 58°
2026-05-04 03:05 32.73520 -117.20083 24 ft 12 kts 81°
2026-05-04 03:05 32.73514 -117.20038 25 ft 0 kts 107°
2026-05-04 03:06 32.73503 -117.19995 23 ft 13 kts 106°
2026-05-04 03:07 32.73476 -117.19881 24 ft 15 kts 105°
2026-05-04 03:07 32.73444 -117.19751 25 ft 18 kts 105°
2026-05-04 03:07 32.73411 -117.19611 23 ft 17 kts 105°
2026-05-04 03:07 32.73376 -117.19469 24 ft 19 kts 106°
2026-05-04 03:08 32.73334 -117.19300 20 ft 24 kts 106°
2026-05-04 03:08 32.73287 -117.19103 24 ft 26 kts 106°
2026-05-04 03:08 32.73235 -117.18890 23 ft 28 kts 105°
2026-05-04 03:08 32.73180 -117.18661 27 ft 30 kts 106°
2026-05-04 03:09 32.73130 -117.18455 26 ft 24 kts 106°
2026-05-04 03:09 32.73083 -117.18260 23 ft 22 kts 106°
2026-05-04 03:09 32.73048 -117.18121 21 ft 18 kts 107°
2026-05-04 03:09 32.73011 -117.17970 22 ft 20 kts 106°
2026-05-04 03:10 32.72983 -117.17846 21 ft 11 kts 105°
2026-05-04 03:10 32.72963 -117.17768 20 ft 10 kts 108°
2026-05-04 03:10 32.72951 -117.17719 20 ft 4 kts 104°
2026-05-04 03:10 32.72950 -117.17713 20 ft 0 kts 104°
2026-05-04 03:11 32.72950 -117.17712 20 ft 0 kts 104°
2026-05-04 03:11 32.72949 -117.17686 20 ft 10 kts 84°
2026-05-04 03:11 32.72976 -117.17595 24 ft 12 kts 57°
2026-05-04 03:12 32.73034 -117.17624 22 ft 13 kts 286°
2026-05-04 03:12 32.73081 -117.17833 20 ft 56 kts 286°
2026-05-04 03:12 32.73252 -117.18538 26 ft 118 kts 286°
2026-05-04 03:12 32.73508 -117.19651 209 ft 148 kts 283°
2026-05-04 03:13 32.73811 -117.20811 902 ft 147 kts 293°
2026-05-04 03:13 32.74329 -117.21875 1494 ft 153 kts 301°
2026-05-04 03:13 32.74963 -117.23003 1784 ft 176 kts 302°
2026-05-04 03:13 32.75695 -117.24288 2099 ft 201 kts 302°
2026-05-04 03:14 32.76522 -117.25747 2546 ft 225 kts 302°
2026-05-04 03:14 32.77438 -117.27373 3122 ft 247 kts 302°
2026-05-04 03:14 32.78404 -117.29099 4038 ft 253 kts 302°
2026-05-04 03:14 32.79382 -117.30860 5040 ft 258 kts 302°
2026-05-04 03:15 32.80403 -117.32630 6017 ft 262 kts 304°
2026-05-04 03:15 32.81504 -117.34378 6916 ft 267 kts 305°
2026-05-04 03:15 32.82652 -117.36135 7800 ft 271 kts 304°
2026-05-04 03:15 32.83814 -117.37896 8693 ft 276 kts 304°
2026-05-04 03:16 32.85006 -117.39707 9539 ft 282 kts 303°
2026-05-04 03:16 32.86220 -117.41567 9894 ft 286 kts 303°
2026-05-04 03:16 32.87435 -117.43436 9976 ft 286 kts 303°
2026-05-04 03:16 32.88659 -117.45332 9996 ft 300 kts 303°
2026-05-04 03:17 32.89992 -117.47422 9996 ft 331 kts 303°
2026-05-04 03:17 32.91407 -117.49639 9993 ft 340 kts 303°
2026-05-04 03:17 32.92849 -117.51884 9993 ft 342 kts 303°
2026-05-04 03:17 32.94300 -117.54129 9989 ft 342 kts 304°
2026-05-04 03:18 32.95749 -117.56373 9993 ft 342 kts 303°
2026-05-04 03:18 32.97199 -117.58625 9993 ft 342 kts 303°
2026-05-04 03:18 32.98645 -117.60876 9992 ft 342 kts 303°
2026-05-04 03:18 33.00086 -117.63127 9992 ft 342 kts 303°
2026-05-04 03:19 33.01529 -117.65382 9983 ft 342 kts 303°
2026-05-04 03:19 33.02970 -117.67638 9986 ft 343 kts 303°
2026-05-04 03:19 33.04416 -117.69902 9988 ft 343 kts 303°
2026-05-04 03:19 33.05863 -117.72163 9998 ft 343 kts 305°
2026-05-04 03:20 33.07546 -117.74161 9998 ft 348 kts 316°
2026-05-04 03:20 33.09390 -117.76031 10002 ft 348 kts 316°
2026-05-04 03:20 33.11238 -117.77898 10003 ft 348 kts 316°
2026-05-04 03:20 33.13079 -117.79766 10009 ft 348 kts 316°
2026-05-04 03:21 33.14925 -117.81643 10008 ft 348 kts 316°
2026-05-04 03:21 33.16764 -117.83516 10001 ft 348 kts 316°
2026-05-04 03:21 33.18655 -117.85336 10004 ft 351 kts 323°
2026-05-04 03:21 33.20885 -117.86559 10014 ft 357 kts 341°
2026-05-04 03:22 33.23323 -117.87196 10010 ft 359 kts 345°
2026-05-04 03:22 33.25773 -117.87793 10008 ft 359 kts 345°
2026-05-04 03:22 33.28223 -117.88393 10009 ft 359 kts 345°
2026-05-04 03:22 33.30673 -117.88999 10007 ft 360 kts 345°
2026-05-04 03:23 33.33123 -117.89606 10007 ft 360 kts 345°
2026-05-04 03:23 33.35572 -117.90218 10004 ft 360 kts 345°
2026-05-04 03:23 33.38021 -117.90835 10003 ft 359 kts 343°
2026-05-04 03:23 33.40414 -117.91626 9989 ft 349 kts 340°
2026-05-04 03:24 33.42706 -117.92439 9917 ft 340 kts 339°
2026-05-04 03:24 33.44921 -117.93245 9787 ft 326 kts 339°
2026-05-04 03:24 33.47029 -117.94021 9656 ft 314 kts 339°
2026-05-04 03:24 33.49075 -117.94778 9525 ft 303 kts 339°
2026-05-04 03:25 33.51064 -117.95511 9396 ft 297 kts 339°
2026-05-04 03:25 33.53037 -117.96234 9265 ft 295 kts 339°
2026-05-04 03:25 33.54999 -117.96950 9136 ft 294 kts 339°
2026-05-04 03:25 33.56950 -117.97661 9013 ft 293 kts 339°
2026-05-04 03:26 33.58896 -117.98372 8879 ft 292 kts 339°
2026-05-04 03:26 33.60835 -117.99080 8752 ft 291 kts 339°
2026-05-04 03:26 33.62770 -117.99784 8609 ft 290 kts 340°
2026-05-04 03:26 33.64700 -118.00486 8497 ft 289 kts 339°
2026-05-04 03:27 33.66625 -118.01188 8384 ft 289 kts 340°
2026-05-04 03:27 33.68542 -118.01889 8231 ft 288 kts 340°
2026-05-04 03:27 33.70479 -118.02599 7758 ft 292 kts 340°
2026-05-04 03:27 33.72410 -118.03304 7453 ft 288 kts 340°
2026-05-04 03:28 33.74280 -118.03987 7281 ft 281 kts 340°
2026-05-04 03:28 33.76114 -118.04665 7113 ft 269 kts 340°
2026-05-04 03:28 33.77837 -118.05300 6999 ft 249 kts 342°
2026-05-04 03:28 33.79480 -118.05682 6974 ft 232 kts 348°
2026-05-04 03:29 33.81054 -118.05973 6954 ft 227 kts 348°
2026-05-04 03:29 33.82608 -118.06209 6677 ft 224 kts 351°
2026-05-04 03:29 33.84135 -118.06405 6414 ft 215 kts 351°
2026-05-04 03:29 33.85640 -118.06599 5773 ft 224 kts 352°
2026-05-04 03:30 33.87203 -118.06835 5244 ft 227 kts 351°
2026-05-04 03:30 33.88770 -118.07087 4818 ft 228 kts 352°
2026-05-04 03:30 33.90331 -118.07391 4519 ft 226 kts 343°
2026-05-04 03:30 33.91643 -118.08360 4232 ft 221 kts 308°
2026-05-04 03:31 33.92414 -118.09942 3978 ft 218 kts 293°
2026-05-04 03:31 33.93015 -118.11587 3823 ft 211 kts 291°
2026-05-04 03:31 33.93577 -118.13178 3707 ft 202 kts 291°
2026-05-04 03:31 33.94103 -118.14690 3643 ft 189 kts 291°
2026-05-04 03:32 33.94600 -118.16085 3596 ft 173 kts 291°
2026-05-04 03:32 33.95069 -118.17390 3436 ft 168 kts 291°
2026-05-04 03:32 33.95516 -118.18674 3264 ft 165 kts 285°
2026-05-04 03:32 33.95583 -118.20026 3099 ft 162 kts 262°
2026-05-04 03:33 33.95447 -118.21370 2898 ft 161 kts 262°
2026-05-04 03:33 33.95313 -118.22694 2690 ft 158 kts 262°
2026-05-04 03:33 33.95180 -118.24006 2480 ft 156 kts 262°
2026-05-04 03:33 33.95051 -118.25288 2269 ft 153 kts 262°
2026-05-04 03:34 33.94923 -118.26554 2067 ft 156 kts 263°
2026-05-04 03:34 33.94791 -118.27864 1847 ft 155 kts 262°
2026-05-04 03:34 33.94664 -118.29123 1650 ft 150 kts 262°
2026-05-04 03:34 33.94543 -118.30322 1446 ft 139 kts 262°
2026-05-04 03:35 33.94430 -118.31437 1264 ft 133 kts 262°
2026-05-04 03:35 33.94318 -118.32539 1091 ft 132 kts 262°
2026-05-04 03:35 33.94206 -118.33639 909 ft 132 kts 262°
2026-05-04 03:35 33.94095 -118.34731 732 ft 131 kts 262°
2026-05-04 03:36 33.93985 -118.35826 529 ft 131 kts 262°
2026-05-04 03:36 33.93877 -118.36905 363 ft 130 kts 262°
2026-05-04 03:36 33.93764 -118.37986 212 ft 130 kts 263°
2026-05-04 03:36 33.93652 -118.39050 99 ft 122 kts 264°
2026-05-04 03:37 33.93573 -118.39866 96 ft 54 kts 263°
2026-05-04 03:37 33.93572 -118.40172 95 ft 27 kts 279°
2026-05-04 03:37 33.93608 -118.40309 97 ft 8 kts 294°
2026-05-04 03:37 33.93627 -118.40386 96 ft 11 kts 278°
2026-05-04 03:38 33.93622 -118.40491 97 ft 14 kts 261°
2026-05-04 03:38 33.93607 -118.40622 97 ft 17 kts 264°
2026-05-04 03:38 33.93596 -118.40753 94 ft 11 kts 264°
2026-05-04 03:38 33.93593 -118.40845 94 ft 12 kts 284°
2026-05-04 03:39 33.93661 -118.40895 96 ft 13 kts 354°
2026-05-04 03:39 33.93742 -118.40907 95 ft 10 kts 353°
2026-05-04 03:39 33.93766 -118.40911 95 ft 1 kts 352°
2026-05-04 03:39 33.93771 -118.40911 94 ft 2 kts 359°
2026-05-04 03:40 33.93790 -118.40874 94 ft 8 kts 83°
2026-05-04 03:40 33.93796 -118.40800 97 ft 10 kts 82°
2026-05-04 03:40 33.93806 -118.40706 95 ft 13 kts 84°
2026-05-04 03:40 33.93817 -118.40591 94 ft 15 kts 83°
2026-05-04 03:41 33.93831 -118.40457 95 ft 17 kts 83°
2026-05-04 03:41 33.93846 -118.40309 96 ft 19 kts 83°
2026-05-04 03:41 33.93863 -118.40143 97 ft 20 kts 82°
2026-05-04 03:41 33.93876 -118.40054 96 ft 6 kts 66°
2026-05-04 03:42 33.93932 -118.40052 94 ft 11 kts 348°
2026-05-04 03:42 33.93981 -118.40081 93 ft 9 kts 310°
2026-05-04 03:42 33.94002 -118.40116 93 ft 5 kts 307°
2026-05-04 03:42 33.94013 -118.40132 93 ft 1 kts 308°
2026-05-04 03:43 33.94015 -118.40136 93 ft 0 kts 308°